Topeka, KS

3:16 AM CST on December 11, 2016 (GMT -0600)
Forbes

Weather History for KFOE - July, 2013

Change the Weather History Date:

Saturday, July 20, 2013

  Actual Average Record
Temperature  
Mean Temperature 80 °F -  
Max Temperature 91 °F 89 °F 105 °F (1954)
Min Temperature 70 °F 68 °F 52 °F (1971)
Cooling Degree Days 15    
Growing Degree Days 30 (Base 50)    
Moisture  
Dew Point 69 °F    
Average Humidity 80    
Maximum Humidity 94    
Minimum Humidity 43    
Precipitation  
Precipitation 0.17 in - - ()
Sea Level Pressure  
Sea Level Pressure 29.90 in    
Wind  
Wind Speed 5 mph (SE)    
Max Wind Speed 13 mph    
Max Gust Speed 16 mph    
Visibility 10 miles    
Events Rain , Thunderstorm    
Averages and records for this station are not official NWS values.
T = Trace of Precipitation, MM = Missing Value Source: NWS Daily Summary

Daily Weather History Graph

Daily Weather History Graph

Search for Another Location

Airport or City:

Trip Planner

Search our weather history database for the weather conditions in past years. The results will help you decide how hot, cold, wet, or windy it might be!

Date:

Astronomy

Jul. 20, 2013 Rise Set
Actual Time 6:13 AM CDT 8:44 PM CDT
Civil Twilight 5:42 AM CDT 9:14 PM CDT
Nautical Twilight 5:04 AM CDT 9:52 PM CDT
Astronomical Twilight 4:22 AM CDT 10:35 PM CDT
Moon 6:48 PM CDT (7/20) 3:54 AM CDT (7/20)
Length of Visible Light 15h 31m
Length of Day
14h 30m
Waxing Gibbous, 94% of the Moon is Illuminated
Jul 20
Waxing Gibbous
Jul 22
Full
Jul 29
Last Quarter
Aug 6
New
Aug 14
First Quarter

Hourly Weather History & Observations

Time (CDT) Temp. Heat Index Dew Point Humidity Pressure Visibility Wind Dir Wind Speed Gust Speed Precip Events Conditions
12:53 AM 73.9 °F - 70.0 °F 87% 29.90 in 10.0 mi WNW 9.2 mph - 0.00 in   Clear
1:53 AM 75.0 °F - 70.0 °F 84% 29.88 in 10.0 mi NW 3.5 mph - N/A   Clear
2:53 AM 75.9 °F - 70.0 °F 82% 29.87 in 10.0 mi Calm Calm - N/A   Clear
3:53 AM 75.0 °F - 71.1 °F 87% 29.87 in 10.0 mi Calm Calm - N/A   Clear
4:53 AM 75.0 °F - 70.0 °F 84% 29.86 in 10.0 mi South 5.8 mph - N/A   Scattered Clouds
5:53 AM 75.0 °F - 70.0 °F 84% 29.88 in 10.0 mi Calm Calm - 0.00 in Rain Light Rain
6:19 AM 73.4 °F - 71.6 °F 94% 29.93 in 10.0 mi ENE 3.5 mph - 0.00 in Thunderstorm Mostly Cloudy
6:34 AM 73.4 °F - 69.8 °F 88% 29.94 in 10.0 mi Calm Calm - 0.00 in Rain Light Rain
6:42 AM 75.2 °F - 69.8 °F 83% 29.94 in 10.0 mi ESE 3.5 mph - 0.00 in Rain , Thunderstorm Light Thunderstorms and Rain
6:53 AM 73.9 °F - 69.1 °F 85% 29.90 in 4.0 mi SE 8.1 mph - 0.05 in Rain , Thunderstorm Thunderstorms and Rain
7:53 AM 73.0 °F - 69.1 °F 87% 29.89 in 10.0 mi SSE 9.2 mph - 0.02 in Thunderstorm Mostly Cloudy
8:29 AM 75.2 °F - 69.8 °F 83% 29.93 in 10.0 mi ESE 3.5 mph - N/A Thunderstorm Partly Cloudy
8:50 AM 75.2 °F - 69.8 °F 83% 29.93 in 10.0 mi SW 6.9 mph - N/A   Scattered Clouds
8:53 AM 75.9 °F - 69.1 °F 79% 29.89 in 10.0 mi SW 8.1 mph - N/A   Partly Cloudy
9:53 AM 77.0 °F - 68.0 °F 74% 29.90 in 10.0 mi SE 5.8 mph - 0.00 in   Partly Cloudy
10:53 AM 78.1 °F - 69.1 °F 74% 29.90 in 10.0 mi NE 3.5 mph - N/A   Clear
11:53 AM 82.0 °F 85.9 °F 70.0 °F 67% 29.90 in 10.0 mi East 6.9 mph - N/A   Clear
12:53 PM 82.9 °F 87.5 °F 71.1 °F 67% 29.89 in 10.0 mi Variable 4.6 mph - N/A   Clear
1:53 PM 86.0 °F 88.8 °F 66.9 °F 53% 29.88 in 10.0 mi East 6.9 mph - N/A   Mostly Cloudy
2:09 PM 89.6 °F 92.2 °F 66.2 °F 46% 29.90 in 10.0 mi NE 8.1 mph - N/A Thunderstorm Partly Cloudy
2:24 PM 89.6 °F 91.1 °F 64.4 °F 43% 29.89 in 10.0 mi ENE 9.2 mph - N/A   Scattered Clouds
2:53 PM 82.9 °F 84.6 °F 64.9 °F 54% 29.88 in 10.0 mi NE 12.7 mph - N/A   Mostly Cloudy
3:53 PM 77.0 °F - 68.0 °F 74% 29.89 in 10.0 mi ENE 6.9 mph - N/A   Clear
4:53 PM 75.9 °F - 69.1 °F 79% 29.91 in 10.0 mi North 5.8 mph - N/A   Overcast
5:37 PM 75.2 °F - 69.8 °F 83% 29.94 in 10.0 mi South 5.8 mph - 0.00 in Thunderstorm Mostly Cloudy
5:49 PM 75.2 °F - 71.6 °F 89% 29.93 in 10.0 mi South 6.9 mph - 0.01 in Rain , Thunderstorm Light Rain
5:53 PM 75.9 °F - 71.1 °F 85% 29.90 in 10.0 mi SSE 5.8 mph - 0.01 in Rain , Thunderstorm Light Rain
6:18 PM 73.4 °F - 71.6 °F 94% 29.92 in 5.0 mi South 9.2 mph - 0.04 in Rain Rain
6:53 PM 73.9 °F - 71.1 °F 91% 29.86 in 10.0 mi SSE 6.9 mph 16.1 mph 0.07 in Rain Light Rain
7:53 PM 73.0 °F - 69.1 °F 87% 29.83 in 10.0 mi ESE 4.6 mph - 0.02 in   Partly Cloudy
8:53 PM 73.0 °F - 69.1 °F 87% 29.85 in 10.0 mi Calm Calm - N/A   Partly Cloudy
9:53 PM 72.0 °F - 69.1 °F 91% 29.91 in 10.0 mi SW 11.5 mph - 0.00 in   Partly Cloudy
10:53 PM 71.1 °F - 68.0 °F 90% 29.91 in 10.0 mi South 3.5 mph - N/A   Clear
11:53 PM 70.0 °F - 66.9 °F 90% 29.91 in 10.0 mi Calm Calm - N/A   Clear